Location: Borbetomagus
(49.6328°N, 8.3592°E)
Time: 06:49:24
(UTC+00:00)

Cosmos 2298 Rocket - Pass Details

Date: 19 May 2025
Orbit: 773 x 781 km, 74.0° (Epoch: 22 June)

Event Time Altitude Azimuth Distance (km) Brightness Sun altitude
Rises 21:17:03 0° 335° (NNW) 3,281 9.2 -15.0°
Reaches altitude 10° 21:19:27 10° 334° (NNW) 2,348 7.9 -15.2°
Maximum altitude 21:24:47 79° 249° (WSW) 803 4.1 -15.6°
Enters shadow 21:27:59 25° 166° (SSE) 1,545 5.0 -15.9°
